SPACEBEENZ-2 (46957 NORAD) Tracking and Keplerian Element Data
This shows tracking and keplerian element data for the satellite.
Feedback or suggestion? Click here.
Element | Value |
Catalog | 46957 |
Name | SPACEBEENZ-2 |
Epoch Orbit | 934 |
Epoch Day | 20.82657643 |
Epoch Year | 2021 |
RAAN | 160.1842 |
Inclination | 97.3747 |
Eccentricity | 0.0017919 |
Argument of Perigee | 84.0868 |
Mean Anonmoly | 276.241 |
Mean Motion | 15.2143804 |
Decay Rate | 2.404E-05 |
L1 | 1 46957U 20085AE 21020.82657643 .00002404 00000-0 10968-3 0 9999 |
L2 | 2 46957 97.3747 160.1842 0017919 84.0868 276.2410 15.21438040 9349 |
Live tracking and technical data element details for SPACEBEENZ-2 (NORAD 46957). SPACEBEENZ-2 can be tracked NOW for your location showing map with azimuth and elevation plus other details from your city location.
Track the satellite on the map from your city or location and see movement details for azimuth, elevation, latitude, longitude, range, height, and movement on the map or in text.
IsCatalogInMostPopularTable: catalog: 46957, numindb: 20
Update: records affected: 1
GetName: 46957 SPACEBEENZ-2
Hit Count: updated at: Fri, 22 Jan 2021 19:43:53 GMT